Lake Charles Regional, LA

12:15 PM CDT on August 20, 2017 (GMT -0500)
Lake Charles Regional

Weather History for KLCH - February, 2013

Change the Weather History Date:

Sunday, February 10, 2013

  Actual Average Record
Temperature  
Mean Temperature 71 °F 54 °F  
Max Temperature 77 °F 64 °F 80 °F (1957)
Min Temperature 64 °F 45 °F 19 °F (1933)
Degree Days  
Heating Degree Days 0 11  
Month to date heating degree days 43 120  
Since 1 July heating degree days 825 1111  
Cooling Degree Days 6 0  
Month to date cooling degree days 6 0  
Year to date cooling degree days 30 10  
Growing Degree Days 20 (Base 50)    
Moisture  
Dew Point 65 °F    
Average Humidity 85    
Maximum Humidity 93    
Minimum Humidity 76    
Precipitation  
Precipitation 0.10 in 0.12 in 2.06 in (1898)
Month to date precipitation 2.80 1.29  
Year to date precipitation 14.18 6.52  
Snow  
Snow 0.00 in 0.00 in 0.00 in ()
Month to date snowfall 0.0 0.0  
Since 1 July snowfall 0.0 T  
Snow Depth 0.00 in    
Sea Level Pressure  
Sea Level Pressure 29.91 in    
Wind  
Wind Speed 10 mph (SSE)    
Max Wind Speed 23 mph    
Max Gust Speed 37 mph    
Visibility 9 miles    
Events Rain    
T = Trace of Precipitation, MM = Missing Value Source: NWS Daily Summary

Daily Weather History Graph

Daily Weather History Graph

Search for Another Location

Airport or City:

Trip Planner

Search our weather history database for the weather conditions in past years. The results will help you decide how hot, cold, wet, or windy it might be!

Date:

Astronomy

Feb. 10, 2013 Rise Set
Actual Time 6:56 AM CST 5:57 PM CST
Civil Twilight 6:32 AM CST 6:22 PM CST
Nautical Twilight 6:03 AM CST 6:50 PM CST
Astronomical Twilight 5:35 AM CST 7:18 PM CST
Moon 6:52 AM CST (2/10) 6:41 PM CST (2/10)
Length of Visible Light 11h 50m
Length of Day
11h 00m
New Moon, 0% of the Moon is Illuminated
Feb 10
New Moon
Feb 17
First Quarter
Feb 25
Full
Mar 4
Last Quarter
Mar 11
New

Hourly Weather History & Observations

Time (CST) Temp. Dew Point Humidity Pressure Visibility Wind Dir Wind Speed Gust Speed Precip Events Conditions
12:53 AM 66.0 °F 63.0 °F 90% 29.95 in 9.0 mi SE 11.5 mph - N/A   Overcast
1:17 AM 66.2 °F 62.6 °F 88% 29.91 in 9.0 mi SE 12.7 mph - N/A   Overcast
1:44 AM 66.2 °F 64.4 °F 94% 29.92 in 9.0 mi SE 11.5 mph - N/A   Overcast
1:53 AM 68.0 °F 64.0 °F 87% 29.94 in 9.0 mi SE 11.5 mph - N/A   Overcast
2:53 AM 66.9 °F 64.0 °F 90% 29.92 in 8.0 mi ESE 6.9 mph - N/A   Overcast
3:53 AM 66.9 °F 64.0 °F 90% 29.89 in 7.0 mi SE 6.9 mph - N/A   Overcast
4:53 AM 70.0 °F 66.9 °F 90% 29.88 in 8.0 mi SSE 16.1 mph 23.0 mph N/A   Overcast
5:53 AM 71.1 °F 68.0 °F 90% 29.88 in 9.0 mi SSE 11.5 mph 19.6 mph N/A   Overcast
6:53 AM 71.6 °F 68.0 °F 88% 29.84 in 9.0 mi SSE 13.8 mph 21.9 mph N/A   Overcast
7:53 AM 72.0 °F 68.0 °F 87% 29.88 in 8.0 mi South 18.4 mph 29.9 mph N/A   Overcast
8:53 AM 73.9 °F 68.0 °F 82% 29.91 in 10.0 mi South 19.6 mph 26.5 mph N/A   Mostly Cloudy
9:53 AM 75.9 °F 68.0 °F 76% 29.90 in 10.0 mi South 19.6 mph 32.2 mph N/A   Partly Cloudy
10:53 AM 77.0 °F 69.1 °F 76% 29.91 in 10.0 mi South 16.1 mph 26.5 mph N/A   Mostly Cloudy
11:53 AM 75.9 °F 68.0 °F 76% 29.90 in 10.0 mi South 18.4 mph 31.1 mph N/A   Overcast
12:09 PM 75.2 °F 68.0 °F 78% 29.88 in 10.0 mi SSW 19.6 mph 32.2 mph N/A   Overcast
12:25 PM 75.2 °F 68.0 °F 78% 29.87 in 10.0 mi SSW 18.4 mph 29.9 mph N/A   Overcast
12:53 PM 75.9 °F 68.0 °F 76% 29.88 in 10.0 mi SSW 18.4 mph 28.8 mph N/A   Mostly Cloudy
1:02 PM 75.2 °F 68.0 °F 78% 29.86 in 10.0 mi SSW 18.4 mph 29.9 mph N/A   Mostly Cloudy
1:53 PM 73.9 °F 68.0 °F 82% 29.87 in 10.0 mi SSW 18.4 mph 26.5 mph N/A   Overcast
2:28 PM 75.2 °F 69.8 °F 83% 29.84 in 10.0 mi SSW 13.8 mph 23.0 mph N/A   Overcast
2:53 PM 73.9 °F 69.1 °F 85% 29.87 in 10.0 mi SSW 12.7 mph 25.3 mph N/A   Overcast
3:21 PM 73.4 °F 69.8 °F 88% 29.85 in 9.0 mi SSW 13.8 mph 23.0 mph N/A   Overcast
3:35 PM 69.8 °F 66.2 °F 88% 29.86 in 8.0 mi Calm Calm - N/A   Overcast
3:44 PM 69.8 °F 64.4 °F 83% 29.86 in 5.0 mi WNW 10.4 mph 17.3 mph 0.00 in Rain Light Rain
3:53 PM 69.1 °F 64.9 °F 87% 29.89 in 5.0 mi NNW 9.2 mph 17.3 mph 0.01 in Rain Rain
4:53 PM 64.9 °F 62.1 °F 90% 29.91 in 4.0 mi Calm Calm - 0.08 in Rain Rain
5:33 PM 64.4 °F 60.8 °F 88% 29.89 in 10.0 mi North 3.5 mph - 0.01 in   Overcast
5:53 PM 64.0 °F 60.1 °F 87% 29.92 in 10.0 mi North 4.6 mph - 0.01 in   Overcast
6:53 PM 64.9 °F 61.0 °F 87% 29.95 in 10.0 mi Calm Calm - N/A   Overcast
7:11 PM 64.4 °F 59.0 °F 83% 29.92 in 10.0 mi ENE 3.5 mph - 0.00 in   Overcast
7:53 PM 64.0 °F 59.0 °F 84% 29.95 in 10.0 mi ENE 4.6 mph - 0.00 in   Overcast
8:53 PM 64.9 °F 60.1 °F 84% 29.98 in 10.0 mi Calm Calm - N/A   Overcast
9:53 PM 64.4 °F 60.8 °F 88% 29.97 in 10.0 mi NNE 3.5 mph - N/A   Overcast
10:53 PM 64.9 °F 62.1 °F 90% 29.99 in 10.0 mi NNE 3.5 mph - N/A   Overcast
11:53 PM 64.9 °F 61.0 °F 87% 29.97 in 10.0 mi NE 4.6 mph - N/A   Overcast